Location: Nelson
(41.2830°S, 173.2830°E)
Time: 10:07:41
(UTC+13:00)

Cosmos 1709 Rocket - Pass Details

Date: 24 January 2019
Orbit: 949 x 1001 km, 82.9° (Epoch: 16 February)

Event Time Altitude Azimuth Distance (km) Brightness Sun altitude
Exits shadow 23:15:13 38° 37° (NE) 1,458 4.4 -20.9°
Maximum altitude 23:17:17 54° 88° (E) 1,190 4.2 -21.2°
Drops below altitude 10° 23:23:22 10° 163° (SSE) 2,743 6.8 -21.8°
Sets 23:25:56 0° 167° (SSE) 3,690 7.7 -22.1°
